When you browse on this site, cookies collect data to enhance your experience and personalize the content and advertising you see.
Visit our Privacy Policy to learn more. By continuing to use the site, you agree to this use of cookies and data.
  • In Hungary
  • List of Countries
  • For 7 days
  • Water Temperature
  • Satellite Maps
  • Weather Map
  • News
  • Weather Widgets
  • user-avatar
    Login

    Hourly Weather Abancay

    Today, 18 November, Sunday

    Time Temperature Precipitation Wind Pressure Humidity
    00:00 +15°C° 0 mm 1 mps 544 mmHg 80%
    01:00 +15°C° 0 mm 1 mps 543 mmHg 80%
    02:00 +14°C° 0 mm 1 mps 543 mmHg 81%
    03:00 +14°C° 0 mm 1 mps 543 mmHg 82%
    04:00 +12°C° 0 mm 0 mps 542 mmHg 83%
    05:00 +14°C° 0 mm 0 mps 543 mmHg 75%
    06:00 +15°C° 0 mm 0 mps 544 mmHg 68%
    07:00 +16°C° 0 mm 0 mps 545 mmHg 61%
    08:00 +20°C° 0 mm 1 mps 546 mmHg 52%
    09:00 +21°C° 0 mm 2 mps 547 mmHg 44%
    10:00 +24°C° 0 mm 2 mps 547 mmHg 35%
    11:00 +25°C° 0 mm 3 mps 547 mmHg 33%
    12:00 +26°C° 0 mm 3 mps 547 mmHg 31%
    13:00 +27°C° 0 mm 3 mps 547 mmHg 29%
    14:00 +26°C° 0.2 mm 3 mps 546 mmHg 32%
    15:00 +25°C° 0.2 mm 4 mps 545 mmHg 35%
    16:00 +25°C° 0.2 mm 4 mps 545 mmHg 38%
    17:00 +21°C° 0.4 mm 3 mps 545 mmHg 48%
    18:00 +19°C° 0.4 mm 3 mps 544 mmHg 57%
    19:00 +17°C° 0.4 mm 2 mps 544 mmHg 67%
    20:00 +17°C° 0.4 mm 2 mps 544 mmHg 71%
    21:00 +16°C° 0.4 mm 2 mps 545 mmHg 76%
    22:00 +15°C° 0.4 mm 1 mps 545 mmHg 80%
    23:00 +15°C° 0.1 mm 1 mps 544 mmHg 80%

    Tomorrow, 19 November, Monday

    Time Temperature Precipitation Wind Pressure Humidity
    00:00 +15°C° 0.1 mm 1 mps 544 mmHg 80%
    01:00 +15°C° 0.1 mm 1 mps 543 mmHg 80%
    02:00 +14°C° 0 mm 1 mps 543 mmHg 80%
    03:00 +14°C° 0 mm 1 mps 543 mmHg 80%
    04:00 +14°C° 0 mm 1 mps 543 mmHg 80%
    05:00 +15°C° 0 mm 1 mps 543 mmHg 76%
    06:00 +15°C° 0 mm 1 mps 544 mmHg 72%
    07:00 +16°C° 0 mm 1 mps 545 mmHg 68%
    08:00 +18°C° 0 mm 1 mps 545 mmHg 61%
    09:00 +19°C° 0 mm 2 mps 546 mmHg 54%
    10:00 +20°C° 0 mm 2 mps 547 mmHg 47%
    11:00 +21°C° 0.1 mm 2 mps 546 mmHg 44%
    12:00 +22°C° 0.1 mm 3 mps 546 mmHg 41%
    13:00 +24°C° 0.1 mm 3 mps 546 mmHg 38%
    14:00 +22°C° 0.1 mm 3 mps 545 mmHg 41%
    15:00 +22°C° 0.1 mm 3 mps 545 mmHg 43%
    16:00 +21°C° 0.1 mm 3 mps 544 mmHg 46%
    17:00 +19°C° 0.1 mm 3 mps 544 mmHg 54%
    18:00 +18°C° 0.1 mm 3 mps 544 mmHg 62%
    19:00 +16°C° 0.1 mm 2 mps 544 mmHg 70%
    20:00 +16°C° 0.1 mm 2 mps 544 mmHg 74%
    21:00 +15°C° 0.1 mm 2 mps 544 mmHg 78%
    22:00 +15°C° 0.1 mm 1 mps 545 mmHg 81%
    23:00 +14°C° 0 mm 1 mps 544 mmHg 82%

    Day after tomorrow, 20 November, Tuesday

    Time Temperature Precipitation Wind Pressure Humidity
    00:00 +14°C° 0 mm 1 mps 544 mmHg 82%
    01:00 +14°C° 0 mm 1 mps 543 mmHg 82%
    02:00 +14°C° 0 mm 1 mps 543 mmHg 82%
    03:00 +14°C° 0 mm 1 mps 543 mmHg 81%
    04:00 +13°C° 0 mm 0 mps 543 mmHg 80%
    05:00 +14°C° 0 mm 1 mps 543 mmHg 75%
    06:00 +15°C° 0 mm 1 mps 544 mmHg 70%
    07:00 +16°C° 0 mm 1 mps 545 mmHg 64%
    08:00 +19°C° 0 mm 1 mps 546 mmHg 57%
    09:00 +20°C° 0 mm 2 mps 547 mmHg 49%
    10:00 +23°C° 0 mm 2 mps 548 mmHg 42%
    11:00 +24°C° 0 mm 2 mps 547 mmHg 40%
    12:00 +25°C° 0 mm 3 mps 547 mmHg 39%
    13:00 +25°C° 0 mm 3 mps 546 mmHg 38%
    14:00 +25°C° 0.2 mm 3 mps 546 mmHg 41%
    15:00 +24°C° 0.2 mm 3 mps 545 mmHg 44%
    16:00 +22°C° 0.2 mm 4 mps 544 mmHg 47%
    17:00 +20°C° 0.6 mm 3 mps 544 mmHg 56%
    18:00 +18°C° 0.6 mm 3 mps 544 mmHg 66%
    19:00 +16°C° 0.6 mm 2 mps 544 mmHg 76%
    20:00 +16°C° 0.5 mm 2 mps 544 mmHg 79%
    21:00 +15°C° 0.5 mm 2 mps 544 mmHg 81%
    22:00 +15°C° 0.5 mm 1 mps 545 mmHg 84%
    23:00 +14°C° 0.9 mm 1 mps 544 mmHg 84%

    21 November, Wednesday

    Time Temperature Precipitation Wind Pressure Humidity
    00:00 +14°C° 0.9 mm 1 mps 544 mmHg 83%
    01:00 +14°C° 0.9 mm 1 mps 543 mmHg 83%
    02:00 +14°C° 0.3 mm 1 mps 543 mmHg 82%
    03:00 +14°C° 0.3 mm 1 mps 543 mmHg 82%
    04:00 +14°C° 0.3 mm 1 mps 543 mmHg 81%
    05:00 +15°C° 0.1 mm 1 mps 544 mmHg 77%
    06:00 +15°C° 0.1 mm 1 mps 544 mmHg 74%
    07:00 +16°C° 0.1 mm 1 mps 545 mmHg 70%
    08:00 +17°C° 0.1 mm 2 mps 545 mmHg 63%
    09:00 +19°C° 0.1 mm 2 mps 546 mmHg 56%
    10:00 +20°C° 0.1 mm 3 mps 547 mmHg 49%
    11:00 +21°C° 0.1 mm 3 mps 546 mmHg 47%
    12:00 +22°C° 0.1 mm 3 mps 546 mmHg 46%
    13:00 +22°C° 0.1 mm 4 mps 546 mmHg 44%
    14:00 +21°C° 0.4 mm 3 mps 545 mmHg 48%
    15:00 +20°C° 0.4 mm 3 mps 544 mmHg 52%
    16:00 +19°C° 0.4 mm 2 mps 543 mmHg 56%
    17:00 +18°C° 1.3 mm 2 mps 544 mmHg 64%
    18:00 +16°C° 1.3 mm 2 mps 544 mmHg 71%
    19:00 +15°C° 1.3 mm 1 mps 544 mmHg 78%
    20:00 +15°C° 0.5 mm 1 mps 544 mmHg 79%
    21:00 +15°C° 0.5 mm 1 mps 544 mmHg 79%
    22:00 +14°C° 0.5 mm 0 mps 545 mmHg 80%
    23:00 +14°C° 0.3 mm 1 mps 544 mmHg 80%

    22 November, Thursday

    Time Temperature Precipitation Wind Pressure Humidity
    00:00 +14°C° 0.3 mm 1 mps 544 mmHg 81%
    01:00 +14°C° 0.3 mm 1 mps 543 mmHg 81%
    02:00 +14°C° 0.1 mm 1 mps 543 mmHg 81%
    03:00 +14°C° 0.1 mm 1 mps 543 mmHg 80%
    04:00 +14°C° 0.1 mm 1 mps 543 mmHg 80%
    05:00 +14°C° 0 mm 1 mps 543 mmHg 76%
    06:00 +15°C° 0 mm 1 mps 544 mmHg 72%
    07:00 +15°C° 0 mm 0 mps 545 mmHg 67%
    08:00 +19°C° 0 mm 1 mps 545 mmHg 59%
    09:00 +21°C° 0 mm 1 mps 546 mmHg 51%
    10:00 +23°C° 0 mm 2 mps 547 mmHg 43%
    11:00 +23°C° 0.1 mm 2 mps 546 mmHg 42%
    12:00 +24°C° 0.1 mm 3 mps 546 mmHg 41%
    13:00 +24°C° 0.1 mm 3 mps 545 mmHg 40%
    14:00 +24°C° 0.2 mm 3 mps 545 mmHg 42%
    15:00 +24°C° 0.2 mm 3 mps 544 mmHg 43%
    16:00 +22°C° 0.2 mm 3 mps 544 mmHg 45%
    17:00 +20°C° 0.1 mm 3 mps 543 mmHg 53%
    18:00 +18°C° 0.1 mm 3 mps 543 mmHg 61%
    19:00 +16°C° 0.1 mm 2 mps 543 mmHg 69%
    20:00 +16°C° 0 mm 2 mps 543 mmHg 72%
    21:00 +16°C° 0 mm 2 mps 544 mmHg 75%
    22:00 +15°C° 0 mm 1 mps 544 mmHg 78%
    23:00 +15°C° 0 mm 1 mps 543 mmHg 78%

    23 November, Friday

    Time Temperature Precipitation Wind Pressure Humidity
    00:00 +15°C° 0 mm 1 mps 543 mmHg 79%
    01:00 +15°C° 0 mm 1 mps 542 mmHg 79%
    02:00 +14°C° 0 mm 1 mps 542 mmHg 80%
    03:00 +14°C° 0 mm 1 mps 542 mmHg 81%
    04:00 +14°C° 0 mm 1 mps 542 mmHg 81%
    05:00 +15°C° 0 mm 1 mps 543 mmHg 76%
    06:00 +16°C° 0 mm 1 mps 543 mmHg 70%
    07:00 +16°C° 0 mm 1 mps 544 mmHg 65%
    08:00 +19°C° 0 mm 1 mps 545 mmHg 57%
    09:00 +20°C° 0 mm 2 mps 545 mmHg 49%
    10:00 +23°C° 0 mm 2 mps 546 mmHg 42%
    11:00 +24°C° 0.1 mm 3 mps 546 mmHg 40%
    12:00 +24°C° 0.1 mm 3 mps 545 mmHg 39%
    13:00 +25°C° 0.1 mm 3 mps 545 mmHg 37%
    14:00 +25°C° 0.1 mm 3 mps 544 mmHg 39%
    15:00 +23°C° 0.1 mm 4 mps 544 mmHg 41%
    16:00 +23°C° 0.1 mm 4 mps 543 mmHg 42%
    17:00 +21°C° 0.1 mm 3 mps 543 mmHg 50%
    18:00 +19°C° 0.1 mm 3 mps 543 mmHg 58%
    19:00 +17°C° 0.1 mm 2 mps 543 mmHg 66%
    20:00 +16°C° 0 mm 2 mps 543 mmHg 70%
    21:00 +16°C° 0 mm 2 mps 543 mmHg 73%
    22:00 +15°C° 0 mm 1 mps 543 mmHg 76%
    23:00 +15°C° 0 mm 1 mps 543 mmHg 77%
    Show more